Regional Weather Roundup
Issued by NWS Albany, NY

Home | Current Version | Previous Version | Text Only | Print | Product List | Glossary On
Versions: 1 2 3 4 5 6 7 8 9 10 11 12 13 14 15 16 17 18 19 20 21 22 23 24 25 26 27 28 29 30 31 32 33 34 35 36 37 38 39 40 41 42 43 44 45 46 47 48 49 50
000
ASUS41 KALY 300710
RWRALY

NEW YORK STATE HOURLY WEATHER ROUNDUP
NATIONAL WEATHER SERVICE ALBANY NY
300 AM EDT TUE JUN 30 2015

NOTE: "FAIR" INDICATES FEW OR NO CLOUDS BELOW 12,000 FEET WITH NO
SIGNIFICANT WEATHER AND/OR NO OBSTRUCTIONS TO VISIBILITY.

NYZ032-033-038>043-046>054-057>066-NYZ062>081-300800-
EAST


CITY           SKY/WX    TMP DP  RH WIND       PRES   REMARKS
ALBANY         MOCLDY    60  56  86 CALM      29.96S
GLENS FALLS    CLOUDY    58  56  93 NW3       29.95S
POUGHKEEPSIE   CLOUDY    62  59  90 CALM      29.94S
NEWBURGH       CLOUDY    64  61  88 CALM      29.97R
MONTGOMERY     CLOUDY    61  61 100 SW3       29.96R
WHITE PLAINS   MOCLDY    65  60  84 NW3       29.96S
ISLIP          CLEAR     67  63  87 S7        29.95S
NEW YORK CITY  PTCLDY    71  57  61 S7        29.95S
CENTRAL PARK   CLEAR     71  56  58 VRB6      29.98S
$$

NYZ005>009-017-018-044>046-055-056-300800-
CENTRAL


CITY           SKY/WX    TMP DP  RH WIND       PRES   REMARKS
FULTON         MOCLDY    58  54  86 CALM      29.93S
SYRACUSE       CLOUDY    58  56  93 E6        29.93F
ROME           PTCLDY    54  53  97 CALM      29.96F
ELMIRA         CLOUDY    62  60  93 CALM      29.93F
BINGHAMTON     CLOUDY    59  57  93 SE5       29.96F
MONTICELLO     CLOUDY    59  57  94 CALM      29.99S
$$

NYZ026>034-041>043-300800-
NORTH


CITY           SKY/WX    TMP DP  RH WIND       PRES   REMARKS
WATERTOWN      CLEAR     50  48  93 E3        29.92F
FORT DRUM      NOT AVBL
MASSENA        CLEAR     54  52  93 SW5       29.92S
SARANAC LAKE   FOG       45  45 100 CALM      29.95F VSB 1/4
PLATTSBURGH    PTCLDY    54  53  97 CALM      29.92S
$$

NYZ001>004-010>016-019>021-300800-
WEST


CITY           SKY/WX    TMP DP  RH WIND       PRES   REMARKS
NIAGARA FALLS  MOCLDY    60  57  89 NE5       29.87F
BUFFALO        CLOUDY    64  58  80 E6        29.87F
DUNKIRK        CLOUDY    63  59  87 E7        29.86F
JAMESTOWN      CLOUDY    59  54  82 SE6       29.89F
WELLSVILLE     CLOUDY    59  56  89 SE6       29.93F FOG
ROCHESTER      CLOUDY    61  57  87 CALM      29.90F
PENN YAN       CLOUDY    62  60  93 SW3       29.92F
$$

             KEY
       WCI = WIND CHILL INDEX
       VSB = VISIBILITY
       HX  = HEAT INDEX
$$


USA.gov is the U.S. government's official web portal to all federal, state and local government web resources and services.